Location: Kawakawa
(35.3830°S, 174.0670°E)
Time: 18:27:19
(UTC+13:00)

Courier 1B - Visible Passes

Search period start: 15 December 2019 00:00
Search period end: 25 December 2019 00:00
Orbit: 963 x 1209 km, 28.3° (Epoch: 14 December)

Date Brightness Start Highest point End Pass type
(mag) Time Alt. Az. Time Alt. Az. Time Alt. Az.
18 Dec 9.7 05:31:25 10° N 05:36:00 17° NNE 05:40:29 10° ENE visible
19 Dec 9.8 04:39:19 10° N 04:42:18 12° NNE 04:45:16 10° NE visible
21 Dec 9.4 04:43:33 12° NNW 04:48:17 21° NNE 04:53:46 10° ENE visible
22 Dec 9.5 03:52:57 15° NNE 03:54:34 16° NNE 03:59:04 10° ENE visible
23 Dec 9.9 03:02:19 11° NE 03:02:19 11° NE 03:03:28 10° NE visible
23 Dec 8.9 04:49:11 16° NNW 04:54:18 31° NNE 05:00:54 10° ENE visible
24 Dec 9.0 03:58:32 23° N 04:00:32 25° NNE 04:06:42 10° ENE visible
